| time (UTC) | temp F | wind direction | speed MPH | gust MPH | rain 1hr in | rain 24hr in | rain mn in | humidity % | barometer mb |
| 20260505171058 | 59 | 5 | 0.0 | 3.0 | 0.00 | 0.00 | 0.00 | 82 | 1015.6 |
| 20260505170054 | 58 | 23 | 0.0 | 3.0 | 0.00 | 0.00 | 0.00 | 84 | 1015.5 |
| 20260505165054 | 58 | 86 | 0.0 | 3.0 | 0.00 | 0.00 | 0.00 | 82 | 1015.5 |
| 20260505164054 | 58 | 115 | 1.0 | 3.0 | 0.00 | 0.00 | 0.00 | 82 | 1015.6 |
| 20260505163057 | 57 | 9 | 0.0 | 2.0 | 0.00 | 0.00 | 0.00 | 84 | 1015.7 |
| 20260505162053 | 57 | 327 | 0.0 | 2.0 | 0.00 | 0.00 | 0.00 | 82 | 1015.6 |
| 20260505161051 | 57 | 22 | 0.0 | 2.0 | 0.00 | 0.00 | 0.00 | 84 | 1015.6 |
| 20260505160528 | 57 | 28 | 0.0 | 2.0 | 0.00 | 0.00 | 0.00 | 84 | 1015.7 |
| 20260505153052 | 56 | 339 | 0.0 | 2.0 | 0.00 | 0.00 | 0.00 | 86 | 1015.7 |
| 20260505152049 | 55 | 339 | 0.0 | 2.0 | 0.00 | 0.00 | 0.00 | 87 | 1015.7 |
| 20260505151050 | 55 | 288 | 0.0 | 1.0 | 0.00 | 0.00 | 0.00 | 88 | 1015.6 |
| 20260505124044 | 53 | 288 | 0.0 | 0.0 | 0.00 | 0.00 | 0.00 | 89 | 1014.6 |
| 20260505123045 | 53 | 288 | 0.0 | 0.0 | 0.00 | 0.00 | 0.00 | 90 | 1014.5 |
| 20260505122042 | 54 | 288 | 0.0 | 0.0 | 0.00 | 0.00 | 0.00 | 88 | 1014.5 |
| 20260505121041 | 54 | 288 | 0.0 | 2.0 | 0.00 | 0.00 | 0.00 | 89 | 1014.5 |
| 20260505120043 | 54 | 288 | 0.0 | 2.0 | 0.00 | 0.00 | 0.00 | 88 | 1014.4 |
| 20260505115519 | 54 | 303 | 0.0 | 2.0 | 0.00 | 0.00 | 0.00 | 88 | 1014.5 |
| 20260505114521 | 54 | 290 | 0.0 | 2.0 | 0.00 | 0.00 | 0.00 | 88 | 1014.6 |
| 20260505113534 | 54 | 280 | 0.0 | 2.0 | 0.00 | 0.00 | 0.00 | 88 | 1014.5 |
| 20260505112518 | 54 | 308 | 0.0 | 3.0 | 0.00 | 0.00 | 0.00 | 87 | 1014.5 |
| 20260505111042 | 54 | 273 | 1.0 | 8.0 | 0.00 | 0.00 | 0.00 | 87 | 1014.7 |
| 20260505102042 | 54 | 283 | 3.0 | 7.0 | 0.00 | 0.00 | 0.00 | 88 | 1014.3 |
| 20260505101041 | 54 | 308 | 2.0 | 6.0 | 0.00 | 0.00 | 0.00 | 88 | 1014.2 |
| 20260505101006 | 54 | 277 | 4.0 | 8.0 | 0.00 | 0.00 | 0.00 | 88 | 1014.2 |
| 20260505095041 | 54 | 262 | 1.0 | 4.0 | 0.00 | 0.00 | 0.00 | 89 | 1014.2 |
| 20260505094042 | 54 | 306 | 1.0 | 3.0 | 0.00 | 0.00 | 0.00 | 89 | 1014.2 |
| 20260505093041 | 54 | 309 | 0.0 | 5.0 | 0.00 | 0.00 | 0.00 | 89 | 1014.2 |
| 20260505092041 | 54 | 285 | 1.0 | 2.0 | 0.00 | 0.00 | 0.00 | 90 | 1014.1 |
| 20260505091041 | 54 | 308 | 0.0 | 3.0 | 0.00 | 0.00 | 0.00 | 90 | 1014.0 |
| 20260505090042 | 54 | 298 | 0.0 | 3.0 | 0.00 | 0.00 | 0.00 | 90 | 1014.1 |
| 20260505085041 | 54 | 287 | 1.0 | 2.0 | 0.00 | 0.00 | 0.00 | 91 | 1014.1 |
| 20260505084041 | 53 | 270 | 0.0 | 3.0 | 0.00 | 0.00 | 0.00 | 91 | 1014.1 |
| 20260505083516 | 53 | 300 | 1.0 | 3.0 | 0.00 | 0.00 | 0.00 | 92 | 1014.1 |
| 20260505082039 | 53 | 275 | 1.0 | 4.0 | 0.00 | 0.00 | 0.00 | 94 | 1014.1 |
| 20260505081039 | 52 | 285 | 0.0 | 4.0 | 0.00 | 0.00 | 0.00 | 95 | 1014.1 |
| 20260505080439 | 51 | 261 | 0.0 | 2.0 | 0.00 | 0.00 | 0.00 | 97 | 1014.1 |
| 20260505080113 | 51 | 291 | 0.0 | 3.0 | 0.00 | 0.00 | 0.00 | 96 | 1014.1 |
| 20260505074039 | 50 | 247 | 0.0 | 2.0 | 0.00 | 0.00 | 0.00 | 97 | 1014.1 |
| 20260505073040 | 50 | 300 | 0.0 | 0.0 | 0.00 | 0.00 | 0.00 | 96 | 1014.1 |
| 20260505072039 | 49 | 300 | 0.0 | 0.0 | 0.00 | 0.00 | 0.00 | 96 | 1014.0 |
| 20260505071042 | 49 | 300 | 0.0 | 0.0 | 0.00 | 0.00 | 0.00 | 96 | 1014.1 |
| 20260505070040 | 48 | 300 | 0.0 | 0.0 | 0.00 | 0.00 | 0.00 | 96 | 1014.0 |
| 20260505065039 | 48 | 300 | 0.0 | 0.0 | 0.00 | 0.00 | 0.00 | 95 | 1014.0 |
| 20260505064039 | 48 | 300 | 0.0 | 0.0 | 0.00 | 0.00 | 0.00 | 95 | 1014.0 |
| 20260505063038 | 48 | 300 | 0.0 | 0.0 | 0.00 | 0.00 | 0.00 | 95 | 1014.0 |
| 20260505062037 | 48 | 300 | 0.0 | 0.0 | 0.00 | 0.00 | 0.00 | 94 | 1014.0 |
| 20260505061037 | 48 | 300 | 0.0 | 0.0 | 0.00 | 0.00 | 0.00 | 94 | 1014.0 |
| 20260505060037 | 48 | 300 | 0.0 | 0.0 | 0.00 | 0.00 | 0.00 | 93 | 1013.9 |
| 20260505055038 | 48 | 300 | 0.0 | 0.0 | 0.00 | 0.00 | 0.00 | 93 | 1013.8 |
| 20260505054036 | 49 | 300 | 0.0 | 0.0 | 0.00 | 0.00 | 0.00 | 93 | 1013.8 |
| 20260505053958 | 49 | 300 | 0.0 | 0.0 | 0.00 | 0.00 | 0.00 | 93 | 1013.8 |
| 20260505052037 | 50 | 300 | 0.0 | 0.0 | 0.00 | 0.00 | 0.00 | 92 | 1013.6 |
| 20260505051038 | 50 | 300 | 0.0 | 0.0 | 0.00 | 0.00 | 0.00 | 92 | 1013.6 |
| 20260505041037 | 54 | 300 | 0.0 | 2.0 | 0.00 | 0.00 | 0.00 | 87 | 1012.8 |
| 20260505040037 | 55 | 300 | 0.0 | 2.0 | 0.00 | 0.00 | 0.00 | 86 | 1012.7 |
| 20260505035039 | 56 | 300 | 0.0 | 2.0 | 0.00 | 0.00 | 0.00 | 86 | 1012.5 |
| 20260505034039 | 56 | 277 | 0.0 | 2.0 | 0.00 | 0.00 | 0.00 | 85 | 1012.4 |
| 20260505033041 | 56 | 265 | 0.0 | 2.0 | 0.00 | 0.00 | 0.00 | 84 | 1012.3 |
| 20260505032038 | 57 | 10 | 0.0 | 2.0 | 0.00 | 0.00 | 0.00 | 83 | 1012.1 |
| 20260505031036 | 58 | 240 | 0.0 | 2.0 | 0.00 | 0.00 | 0.00 | 82 | 1011.8 |
| 20260505030037 | 59 | 227 | 0.0 | 2.0 | 0.00 | 0.00 | 0.00 | 81 | 1011.6 |
| 20260505025036 | 60 | 245 | 0.0 | 1.0 | 0.00 | 0.00 | 0.00 | 79 | 1011.4 |
| 20260505024037 | 61 | 332 | 0.0 | 2.0 | 0.00 | 0.00 | 0.00 | 78 | 1011.3 |
| 20260505023037 | 62 | 281 | 2.0 | 3.0 | 0.00 | 0.00 | 0.00 | 76 | 1011.2 |
| 20260505022526 | 63 | 167 | 0.0 | 4.0 | 0.00 | 0.00 | 0.00 | 76 | 1011.1 |
| 20260505021052 | 64 | 110 | 1.0 | 7.0 | 0.00 | 0.00 | 0.00 | 73 | 1010.9 |
| 20260505020043 | 64 | 254 | 1.0 | 3.0 | 0.00 | 0.00 | 0.00 | 73 | 1010.9 |
| 20260505015048 | 65 | 258 | 2.0 | 10.0 | 0.00 | 0.00 | 0.00 | 73 | 1010.9 |
| 20260505014046 | 66 | 273 | 0.0 | 2.0 | 0.00 | 0.00 | 0.00 | 73 | 1010.9 |
| 20260505013049 | 66 | 244 | 0.0 | 2.0 | 0.00 | 0.00 | 0.00 | 72 | 1011.0 |
| 20260505012523 | 66 | 243 | 0.0 | 7.0 | 0.00 | 0.00 | 0.00 | 72 | 1011.1 |
| 20260505011044 | 67 | 111 | 0.0 | 7.0 | 0.00 | 0.00 | 0.00 | 71 | 1011.0 |
| 20260505010049 | 67 | 223 | 0.0 | 7.0 | 0.00 | 0.00 | 0.00 | 72 | 1011.1 |
| 20260505005045 | 68 | 166 | 2.0 | 5.0 | 0.00 | 0.00 | 0.00 | 69 | 1011.1 |
| 20260505004049 | 68 | 142 | 1.0 | 6.0 | 0.00 | 0.00 | 0.00 | 70 | 1011.1 |
| 20260505003045 | 69 | 200 | 1.0 | 4.0 | 0.00 | 0.00 | 0.00 | 69 | 1011.1 |
| 20260505002053 | 68 | 166 | 1.0 | 6.0 | 0.00 | 0.00 | 0.00 | 70 | 1011.0 |
| 20260505001042 | 69 | 292 | 0.0 | 4.0 | 0.00 | 0.00 | 0.00 | 71 | 1011.0 |
| 20260505000039 | 69 | 274 | 2.0 | 5.0 | 0.00 | 0.00 | 0.00 | 69 | 1011.0 |
| 20260504235039 | 68 | 257 | 0.0 | 9.0 | 0.00 | 0.00 | 0.00 | 70 | 1011.0 |
| 20260504234041 | 68 | 313 | 2.0 | 10.0 | 0.00 | 0.00 | 0.00 | 72 | 1011.0 |
| 20260504233037 | 69 | 269 | 1.0 | 8.0 | 0.00 | 0.00 | 0.00 | 72 | 1011.1 |
| 20260504232038 | 70 | 300 | 1.0 | 6.0 | 0.00 | 0.00 | 0.00 | 71 | 1011.1 |
| 20260504231037 | 71 | 285 | 2.0 | 10.0 | 0.00 | 0.00 | 0.00 | 66 | 1011.2 |
| 20260504230037 | 70 | 240 | 2.0 | 13.0 | 0.00 | 0.00 | 0.00 | 69 | 1011.4 |
| 20260504225037 | 71 | 254 | 2.0 | 10.0 | 0.00 | 0.00 | 0.00 | 70 | 1011.5 |
| 20260504224035 | 70 | 265 | 4.0 | 10.0 | 0.00 | 0.00 | 0.00 | 68 | 1011.6 |
| 20260504223035 | 71 | 286 | 1.0 | 5.0 | 0.00 | 0.00 | 0.00 | 70 | 1011.7 |
| 20260504222035 | 70 | 249 | 2.0 | 8.0 | 0.00 | 0.00 | 0.00 | 70 | 1011.8 |
| 20260504221036 | 68 | 198 | 1.0 | 10.0 | 0.00 | 0.00 | 0.00 | 76 | 1011.9 |
| 20260504220040 | 68 | 260 | 2.0 | 9.0 | 0.00 | 0.00 | 0.00 | 72 | 1012.3 |
| 20260504215514 | 68 | 286 | 3.0 | 9.0 | 0.00 | 0.00 | 0.00 | 70 | 1012.3 |
| 20260504214519 | 68 | 93 | 2.0 | 8.0 | 0.00 | 0.00 | 0.00 | 72 | 1012.3 |
| 20260504213035 | 68 | 252 | 2.0 | 11.0 | 0.00 | 0.00 | 0.00 | 75 | 1012.4 |
| 20260504212523 | 68 | 182 | 2.0 | 8.0 | 0.00 | 0.00 | 0.00 | 71 | 1012.4 |
| 20260504211034 | 68 | 252 | 2.0 | 10.0 | 0.00 | 0.00 | 0.00 | 71 | 1012.6 |
| 20260504210035 | 67 | 161 | 1.0 | 8.0 | 0.00 | 0.00 | 0.00 | 70 | 1012.6 |
| 20260504205035 | 68 | 299 | 2.0 | 9.0 | 0.00 | 0.00 | 0.00 | 76 | 1012.6 |
| 20260504204037 | 68 | 271 | 2.0 | 7.0 | 0.00 | 0.00 | 0.00 | 80 | 1012.7 |
| 20260504203035 | 67 | 90 | 2.0 | 6.0 | 0.00 | 0.00 | 0.00 | 71 | 1012.8 |
| 20260504202034 | 66 | 128 | 1.0 | 4.0 | 0.00 | 0.00 | 0.00 | 72 | 1012.9 |
| 20260504201035 | 66 | 243 | 1.0 | 7.0 | 0.00 | 0.00 | 0.00 | 76 | 1013.0 |
| 20260504200036 | 66 | 223 | 1.0 | 7.0 | 0.00 | 0.00 | 0.00 | 79 | 1013.0 |
| 20260504195034 | 65 | 288 | 0.0 | 6.0 | 0.00 | 0.00 | 0.00 | 75 | 1013.0 |
| 20260504194034 | 65 | 317 | 0.0 | 4.0 | 0.00 | 0.00 | 0.00 | 74 | 1013.1 |
| 20260504193035 | 64 | 260 | 2.0 | 7.0 | 0.00 | 0.00 | 0.00 | 76 | 1013.2 |
| 20260504192035 | 65 | 286 | 0.0 | 8.0 | 0.00 | 0.00 | 0.00 | 77 | 1013.3 |
| 20260504191034 | 63 | 249 | 1.0 | 6.0 | 0.00 | 0.00 | 0.00 | 81 | 1013.3 |
| 20260504190035 | 63 | 97 | 1.0 | 5.0 | 0.00 | 0.00 | 0.00 | 76 | 1013.4 |
| 20260504185034 | 63 | 31 | 0.0 | 5.0 | 0.00 | 0.00 | 0.00 | 80 | 1013.5 |
| 20260504184034 | 62 | 290 | 2.0 | 4.0 | 0.00 | 0.00 | 0.00 | 78 | 1013.6 |
| 20260504183035 | 62 | 121 | 1.0 | 4.0 | 0.00 | 0.00 | 0.00 | 80 | 1013.7 |
| 20260504182034 | 61 | 294 | 0.0 | 3.0 | 0.00 | 0.00 | 0.00 | 80 | 1013.7 |
| 20260504181035 | 60 | 221 | 0.0 | 6.0 | 0.00 | 0.00 | 0.00 | 80 | 1013.8 |
| 20260504180032 | 60 | 263 | 1.0 | 4.0 | 0.00 | 0.00 | 0.00 | 81 | 1013.8 |
| 20260504175032 | 60 | 83 | 1.0 | 3.0 | 0.00 | 0.00 | 0.00 | 82 | 1013.8 |
| 20260504174524 | 60 | 305 | 0.0 | 4.0 | 0.00 | 0.00 | 0.00 | 82 | 1013.9 |
| 20260504173424 | 59 | 279 | 1.0 | 2.0 | 0.00 | 0.00 | 0.00 | 83 | 1013.9 |
| 20260504173058 | 59 | 299 | 2.0 | 4.0 | 0.00 | 0.00 | 0.00 | 82 | 1013.9 |
| 20260504171519 | 58 | 117 | 0.0 | 2.0 | 0.00 | 0.00 | 0.00 | 84 | 1013.9 |